AFL705 URSS-ULLI

Flight info

Callsign AFL705
Flight time N/A
Altitude 36000
Route IRGID1S IRGID A944 GUBOR G487 ERSAR DCT BEMES DCT VULFI DCT TUVGI DCT EVZUN DCT ZIZAR DCT VAZLU DCT UZZID DCT NOKLI N72 WGD G481 OBABI T619 UMRAL P163 GOLRI L736 OLOPI N50 NUDKO T561 ODATI T875 GENPA GENPA1V GENPA1B/28L
Aircraft B738/M-SDE2E3FGHIRWXY/LB1

Departure

Time N/A
Airport Sochi International Airport (URSS)

Arrival

Time 2026-05-03 20:29
Airport Pulkovo Airport (ULLI)
Time Latitude Longitude Altitude Speed Heading
2026-05-03 20:15 59.29776 31.43979 9545 ft 265 kts 310°
2026-05-03 20:15 59.31054 31.41381 9209 ft 264 kts 310°
2026-05-03 20:15 59.32288 31.38871 8893 ft 263 kts 310°
2026-05-03 20:15 59.33536 31.36331 8572 ft 262 kts 310°
2026-05-03 20:16 59.34799 31.33757 8253 ft 261 kts 310°
2026-05-03 20:16 59.36053 31.31201 7943 ft 260 kts 310°
2026-05-03 20:16 59.37303 31.28648 7642 ft 258 kts 310°
2026-05-03 20:16 59.38549 31.26103 7343 ft 257 kts 310°
2026-05-03 20:17 59.39785 31.23576 7052 ft 256 kts 310°
2026-05-03 20:17 59.41015 31.21057 6756 ft 255 kts 310°
2026-05-03 20:17 59.42238 31.18548 6459 ft 254 kts 310°
2026-05-03 20:17 59.43460 31.16042 6173 ft 253 kts 310°
2026-05-03 20:18 59.44671 31.13554 5871 ft 252 kts 310°
2026-05-03 20:18 59.45880 31.11067 5552 ft 251 kts 310°
2026-05-03 20:18 59.47085 31.08586 5235 ft 251 kts 309°
2026-05-03 20:18 59.48274 31.06134 4952 ft 249 kts 309°
2026-05-03 20:19 59.49473 31.03659 4897 ft 252 kts 309°
2026-05-03 20:19 59.50684 31.01155 4863 ft 251 kts 309°
2026-05-03 20:19 59.51886 30.98671 4865 ft 250 kts 309°
2026-05-03 20:19 59.53084 30.96191 4856 ft 250 kts 309°
2026-05-03 20:20 59.54284 30.93702 4853 ft 249 kts 309°
2026-05-03 20:20 59.55336 30.91116 4829 ft 234 kts 294°
2026-05-03 20:20 59.56005 30.88322 4776 ft 222 kts 302°
2026-05-03 20:20 59.56857 30.86753 4705 ft 221 kts 318°
2026-05-03 20:21 59.57866 30.85203 4517 ft 218 kts 315°
2026-05-03 20:21 59.59013 30.83247 4250 ft 217 kts 313°
2026-05-03 20:21 59.60120 30.81220 3998 ft 216 kts 312°
2026-05-03 20:21 59.61196 30.79145 3756 ft 215 kts 311°
2026-05-03 20:22 59.61802 30.77940 3618 ft 214 kts 310°
2026-05-03 20:22 59.62840 30.75829 3367 ft 214 kts 310°
2026-05-03 20:22 59.63872 30.73700 3110 ft 214 kts 310°
2026-05-03 20:22 59.64898 30.71566 2858 ft 213 kts 310°
2026-05-03 20:23 59.65896 30.69483 2801 ft 207 kts 310°
2026-05-03 20:23 59.66893 30.67434 2820 ft 210 kts 309°
2026-05-03 20:23 59.67592 30.64820 2841 ft 220 kts 284°
2026-05-03 20:23 59.68276 30.62140 2726 ft 224 kts 316°
2026-05-03 20:24 59.69691 30.60884 2564 ft 227 kts 345°
2026-05-03 20:24 59.71202 30.60031 2535 ft 226 kts 335°
2026-05-03 20:24 59.72614 30.58718 2498 ft 227 kts 329°
2026-05-03 20:24 59.73960 30.57152 2484 ft 221 kts 326°
2026-05-03 20:25 59.75073 30.55234 2469 ft 206 kts 296°
2026-05-03 20:25 59.75457 30.52642 2504 ft 189 kts 283°
2026-05-03 20:25 59.75814 30.50147 2378 ft 189 kts 286°
2026-05-03 20:25 59.76191 30.47633 2133 ft 191 kts 286°
2026-05-03 20:26 59.76561 30.45113 1886 ft 189 kts 286°
2026-05-03 20:26 59.76920 30.42664 1627 ft 180 kts 286°
2026-05-03 20:26 59.77257 30.40359 1393 ft 167 kts 286°
2026-05-03 20:26 59.77566 30.38257 1150 ft 151 kts 286°
2026-05-03 20:27 59.77851 30.36311 956 ft 144 kts 286°
2026-05-03 20:27 59.78127 30.34387 763 ft 148 kts 286°
2026-05-03 20:27 59.78427 30.32444 580 ft 147 kts 285°
2026-05-03 20:27 59.78709 30.30479 359 ft 149 kts 286°
2026-05-03 20:28 59.78996 30.28512 145 ft 147 kts 286°
2026-05-03 20:28 59.79276 30.26635 82 ft 133 kts 290°
2026-05-03 20:28 59.79507 30.25109 82 ft 98 kts 287°
2026-05-03 20:28 59.79663 30.24052 84 ft 64 kts 287°
2026-05-03 20:29 59.79758 30.23437 85 ft 29 kts 289°
2026-05-03 20:29 59.79801 30.23290 84 ft 0 kts 305°
2026-05-03 20:29 59.79813 30.23259 85 ft 11 kts 310°
2026-05-03 20:30 59.79890 30.23092 83 ft 18 kts 317°
2026-05-03 20:30 59.79930 30.23035 86 ft 0 kts 337°
2026-05-03 20:31 59.79946 30.23027 85 ft 7 kts 356°
2026-05-03 20:31 59.79981 30.23089 85 ft 5 kts 84°
2026-05-03 20:31 59.79974 30.23162 82 ft 5 kts 103°
2026-05-03 20:32 59.79964 30.23233 82 ft 5 kts 107°
2026-05-03 20:32 59.79952 30.23311 85 ft 8 kts 107°
2026-05-03 20:32 59.79925 30.23491 86 ft 19 kts 106°
2026-05-03 20:32 59.79880 30.23799 84 ft 27 kts 106°
2026-05-03 20:33 59.79826 30.24161 87 ft 27 kts 106°
2026-05-03 20:33 59.79776 30.24498 83 ft 25 kts 106°
2026-05-03 20:33 59.79729 30.24816 85 ft 23 kts 107°
2026-05-03 20:33 59.79677 30.25158 85 ft 28 kts 106°
2026-05-03 20:34 59.79622 30.25539 85 ft 28 kts 106°
2026-05-03 20:34 59.79566 30.25900 85 ft 27 kts 107°
2026-05-03 20:34 59.79537 30.26116 87 ft 10 kts 105°
2026-05-03 20:34 59.79516 30.26249 85 ft 10 kts 108°
2026-05-03 20:35 59.79526 30.26349 83 ft 7 kts 33°
2026-05-03 20:35 59.79579 30.26390 86 ft 12 kts 17°
2026-05-03 20:35 59.79674 30.26447 86 ft 17 kts 16°
2026-05-03 20:35 59.79773 30.26504 83 ft 14 kts 17°
2026-05-03 20:36 59.79809 30.26538 80 ft 4 kts 24°
2026-05-03 20:36 59.79827 30.26564 83 ft 0 kts 46°
2026-05-03 20:36 59.79831 30.26590 83 ft 3 kts 89°
2026-05-03 20:36 59.79824 30.26641 82 ft 4 kts 105°
2026-05-03 20:37 59.79822 30.26655 81 ft 0 kts 106°